Tracking 20093 objects as of 16-Dec-2019
HD Live streaming from Space Station
objects crossing your sky now

BREEZE-M DEB

Track BREEZE-M DEB now!
10-day predictions


NORAD ID: 36594
Int'l Code: 2010-025C
Perigee: 314.8 km
Apogee: 16,010.5 km
Inclination: 49.5 °
Period: 290.6 minutes
Semi major axis: 14533 km
RCS: 5.977 m2 (large)
Launch date: June 3, 2010
Source: Commonwealth of Independent States (former USSR) (CIS)
Launch site: TYURATAM MISSILE AND SPACE COMPLEX (TTMTR)

Note: This is SATELLITE DEBRIS
aabbcc
Your satellite tracking list
Your tracking list is empty




NASA's NSSDC Master Catalog

Two Line Element Set (TLE):
1 36594U 10025C   19349.74934869 +.00000972 +00000-0 +20032-3 0  9999
2 36594 049.5061 283.1361 5399780 299.0913 017.6693 04.95497114169879
Source of the keplerian elements: AFSPC